WZZ205M EPGD-LZTT

Flight info

Callsign WZZ205M
Flight time 0h 56m
Altitude 29000
Route IRLUN N133 PENEX DCT NUBLI/N0353F230 DCT OVBOR N133 NEGUV/N0328F180 N133 KOTEK M985 VAVEL/N0326F170 L623 LENOV Y73 ORLAN
Aircraft A21N/M-SDE1E2E3FGIJ1J4RWXY/LB1

Departure

Time 2026-05-01 13:08
Airport Gdańsk Lech Wałęsa Airport (EPGD)

Arrival

Time 2026-05-01 14:04
Airport Poprad-Tatry Airport (LZTT)
Time Latitude Longitude Altitude Speed Heading
2026-05-01 12:38 54.38141 18.46500 465 ft 0 kts 23°
2026-05-01 12:59 54.38118 18.46484 463 ft 4 kts
2026-05-01 12:59 54.38098 18.46497 461 ft 4 kts 305°
2026-05-01 12:59 54.38087 18.46532 465 ft 0 kts 293°
2026-05-01 13:07 54.37954 18.45831 461 ft 38 kts 112°
2026-05-01 13:07 54.37756 18.46632 461 ft 113 kts 112°
2026-05-01 13:07 54.37362 18.48198 591 ft 159 kts 111°
2026-05-01 13:08 54.36916 18.49945 1277 ft 164 kts 111°
2026-05-01 13:08 54.36459 18.51795 1919 ft 173 kts 113°
2026-05-01 13:08 54.35981 18.53719 2541 ft 177 kts 113°
2026-05-01 13:08 54.35497 18.55655 3165 ft 176 kts 112°
2026-05-01 13:09 54.35018 18.57601 3765 ft 182 kts 112°
2026-05-01 13:09 54.34497 18.59712 4229 ft 202 kts 112°
2026-05-01 13:09 54.33926 18.62007 4853 ft 216 kts 112°
2026-05-01 13:09 54.33108 18.64261 5445 ft 233 kts 133°
2026-05-01 13:10 54.31690 18.65754 6000 ft 250 kts 163°
2026-05-01 13:10 54.29893 18.65836 6471 ft 272 kts 196°
2026-05-01 13:10 54.28088 18.64610 7058 ft 286 kts 206°
2026-05-01 13:10 54.26267 18.63141 7869 ft 292 kts 206°
2026-05-01 13:11 54.24345 18.62026 8604 ft 303 kts 189°
2026-05-01 13:11 54.22183 18.61787 9148 ft 321 kts 180°
2026-05-01 13:11 54.19905 18.61795 9834 ft 331 kts 179°
2026-05-01 13:11 54.17581 18.61814 10619 ft 337 kts 179°
2026-05-01 13:12 54.15221 18.61815 11384 ft 341 kts 179°
2026-05-01 13:12 54.12830 18.61805 12115 ft 347 kts 179°
2026-05-01 13:12 54.10397 18.61783 12870 ft 352 kts 179°
2026-05-01 13:12 54.07926 18.61760 13622 ft 358 kts 179°
2026-05-01 13:13 54.05419 18.61740 14358 ft 363 kts 178°
2026-05-01 13:13 54.02875 18.61717 15065 ft 367 kts 178°
2026-05-01 13:13 54.00309 18.61691 15784 ft 371 kts 178°
2026-05-01 13:13 53.97711 18.61666 16523 ft 375 kts 178°
2026-05-01 13:14 53.95087 18.61642 17241 ft 379 kts 178°
2026-05-01 13:14 53.92433 18.61620 17949 ft 383 kts 178°
2026-05-01 13:14 53.89755 18.61599 18655 ft 387 kts 178°
2026-05-01 13:14 53.87051 18.61576 19276 ft 390 kts 178°
2026-05-01 13:15 53.84323 18.61556 19895 ft 394 kts 178°
2026-05-01 13:15 53.81572 18.61534 20510 ft 398 kts 177°
2026-05-01 13:15 53.78790 18.61513 21100 ft 401 kts 177°
2026-05-01 13:15 53.75996 18.61614 21708 ft 402 kts 170°
2026-05-01 13:16 53.73292 18.62662 22296 ft 397 kts 155°
2026-05-01 13:16 53.70748 18.64454 22902 ft 397 kts 151°
2026-05-01 13:16 53.68213 18.66370 23487 ft 400 kts 150°
2026-05-01 13:17 53.60476 18.72087 25011 ft 409 kts 152°
2026-05-01 13:17 53.57853 18.73991 25485 ft 412 kts 152°
2026-05-01 13:18 53.52554 18.77802 26413 ft 418 kts 154°
2026-05-01 13:18 53.49789 18.79404 26884 ft 422 kts 158°
2026-05-01 13:18 53.47020 18.80867 27334 ft 424 kts 158°
2026-05-01 13:18 53.44194 18.82344 27776 ft 427 kts 158°
2026-05-01 13:19 53.41353 18.83834 28202 ft 429 kts 158°
2026-05-01 13:19 53.38498 18.85334 28645 ft 431 kts 158°
2026-05-01 13:19 53.32731 18.88362 29407 ft 437 kts 158°
2026-05-01 13:20 53.29819 18.89888 29785 ft 440 kts 158°
2026-05-01 13:20 53.26892 18.91422 30158 ft 442 kts 158°
2026-05-01 13:20 53.23952 18.92957 30497 ft 444 kts 158°
2026-05-01 13:21 53.18022 18.96049 31079 ft 449 kts 158°
2026-05-01 13:21 53.15032 18.97607 31351 ft 451 kts 158°
2026-05-01 13:21 53.12030 18.99168 31618 ft 454 kts 158°
2026-05-01 13:21 53.09007 19.00735 31878 ft 456 kts 158°
2026-05-01 13:22 53.05974 19.02308 32137 ft 458 kts 158°
2026-05-01 13:22 53.02921 19.03887 32389 ft 461 kts 159°
2026-05-01 13:22 52.99853 19.05470 32645 ft 463 kts 159°
2026-05-01 13:22 52.96772 19.07059 32882 ft 465 kts 159°
2026-05-01 13:23 52.93671 19.08657 33153 ft 468 kts 158°
2026-05-01 13:23 52.90558 19.10259 33370 ft 470 kts 158°
2026-05-01 13:23 52.87420 19.11871 33583 ft 473 kts 158°
2026-05-01 13:23 52.84274 19.13483 33813 ft 475 kts 158°
2026-05-01 13:24 52.81111 19.15105 34031 ft 477 kts 158°
2026-05-01 13:24 52.77932 19.16730 34242 ft 479 kts 158°
2026-05-01 13:24 52.74746 19.18360 34438 ft 480 kts 159°
2026-05-01 13:25 52.68398 19.21585 35081 ft 475 kts 159°
2026-05-01 13:25 52.65246 19.23185 35347 ft 474 kts 159°
2026-05-01 13:25 52.62097 19.24783 35574 ft 473 kts 159°
2026-05-01 13:25 52.58952 19.26378 35799 ft 473 kts 159°
2026-05-01 13:26 52.55811 19.27969 36007 ft 473 kts 159°
2026-05-01 13:26 52.52673 19.29585 36217 ft 472 kts 159°
2026-05-01 13:26 52.49587 19.31202 36437 ft 472 kts 158°
2026-05-01 13:26 52.46413 19.32860 36632 ft 472 kts 158°
2026-05-01 13:27 52.43322 19.34465 36828 ft 472 kts 159°
2026-05-01 13:27 52.40192 19.36088 37033 ft 472 kts 159°
2026-05-01 13:27 52.33935 19.39319 37374 ft 470 kts 159°
2026-05-01 13:28 52.24604 19.44125 37344 ft 468 kts 159°
2026-05-01 13:29 52.12163 19.50497 37337 ft 469 kts 159°
2026-05-01 13:31 51.93509 19.59980 37344 ft 468 kts 159°
2026-05-01 13:32 51.77959 19.67823 37345 ft 468 kts 159°
2026-05-01 13:33 51.62390 19.75618 37345 ft 470 kts 159°
2026-05-01 13:34 51.49959 19.81803 37344 ft 469 kts 159°
2026-05-01 13:35 51.40619 19.86427 37344 ft 469 kts 159°
2026-05-01 13:36 51.31289 19.91111 37340 ft 468 kts 158°
2026-05-01 13:36 51.21995 19.95956 37353 ft 469 kts 157°
2026-05-01 13:37 51.15785 19.99166 37342 ft 469 kts 158°
2026-05-01 13:37 51.09552 20.02262 37340 ft 469 kts 158°
2026-05-01 13:38 51.00197 20.06892 37337 ft 469 kts 158°
2026-05-01 13:39 50.93965 20.09974 37339 ft 469 kts 158°
2026-05-01 13:39 50.87733 20.13044 37332 ft 470 kts 158°
2026-05-01 13:40 50.81522 20.16269 37342 ft 469 kts 156°
2026-05-01 13:40 50.75384 20.19525 36953 ft 464 kts 156°
2026-05-01 13:40 50.72327 20.21135 36689 ft 463 kts 156°
2026-05-01 13:41 50.69273 20.22735 36457 ft 462 kts 156°
2026-05-01 13:41 50.66231 20.24325 36217 ft 460 kts 156°
2026-05-01 13:41 50.63230 20.25998 35983 ft 457 kts 154°
2026-05-01 13:41 50.60259 20.27756 35746 ft 455 kts 153°
2026-05-01 13:42 50.57301 20.29519 35518 ft 454 kts 153°
2026-05-01 13:42 50.54360 20.31270 35150 ft 450 kts 153°
2026-05-01 13:42 50.51445 20.32999 34682 ft 446 kts 153°
2026-05-01 13:42 50.48541 20.34719 34172 ft 445 kts 152°
2026-05-01 13:43 50.45654 20.36428 33590 ft 443 kts 152°
2026-05-01 13:43 50.42781 20.38123 33037 ft 440 kts 152°
2026-05-01 13:43 50.39923 20.39809 32499 ft 437 kts 152°
2026-05-01 13:43 50.37087 20.41478 31975 ft 434 kts 152°
2026-05-01 13:44 50.34268 20.43137 31458 ft 431 kts 152°
2026-05-01 13:44 50.31469 20.44782 30942 ft 429 kts 152°
2026-05-01 13:44 50.28685 20.46418 30468 ft 425 kts 151°
2026-05-01 13:44 50.25925 20.48039 29914 ft 422 kts 151°
2026-05-01 13:45 50.23219 20.49622 29348 ft 420 kts 151°
2026-05-01 13:45 50.20494 20.51214 28839 ft 416 kts 151°
2026-05-01 13:45 50.17791 20.52792 28343 ft 413 kts 151°
2026-05-01 13:45 50.15118 20.54351 27871 ft 409 kts 151°
2026-05-01 13:46 50.12461 20.55899 27398 ft 406 kts 151°
2026-05-01 13:46 50.09828 20.57433 26905 ft 403 kts 151°
2026-05-01 13:46 50.07210 20.58955 26427 ft 400 kts 151°
2026-05-01 13:46 50.04612 20.60463 25955 ft 398 kts 151°
2026-05-01 13:47 50.02897 20.61458 25656 ft 396 kts 151°
2026-05-01 13:47 50.00327 20.62948 25204 ft 393 kts 151°
2026-05-01 13:47 49.97771 20.64429 24719 ft 392 kts 151°
2026-05-01 13:47 49.95218 20.65906 24230 ft 391 kts 151°
2026-05-01 13:48 49.92638 20.67398 23730 ft 390 kts 151°
2026-05-01 13:48 49.90130 20.68845 23198 ft 388 kts 151°
2026-05-01 13:48 49.87608 20.70299 22675 ft 386 kts 151°
2026-05-01 13:48 49.85098 20.71743 22168 ft 384 kts 152°
2026-05-01 13:49 49.82603 20.73176 21686 ft 381 kts 152°
2026-05-01 13:49 49.80122 20.74601 21204 ft 379 kts 152°
2026-05-01 13:49 49.77660 20.76014 20726 ft 377 kts 152°
2026-05-01 13:49 49.75216 20.77414 20285 ft 373 kts 152°
2026-05-01 13:50 49.72796 20.78800 19823 ft 368 kts 152°
2026-05-01 13:50 49.70408 20.80166 19382 ft 364 kts 152°
2026-05-01 13:50 49.68042 20.81517 18945 ft 360 kts 152°
2026-05-01 13:50 49.65703 20.82852 18509 ft 357 kts 153°
2026-05-01 13:51 49.63394 20.84169 18040 ft 353 kts 153°
2026-05-01 13:51 49.61101 20.85474 17607 ft 348 kts 153°
2026-05-01 13:51 49.58849 20.86756 17199 ft 342 kts 153°
2026-05-01 13:51 49.56635 20.88014 16809 ft 336 kts 153°
2026-05-01 13:52 49.54435 20.89266 16433 ft 337 kts 153°
2026-05-01 13:52 49.52231 20.90519 16063 ft 338 kts 153°
2026-05-01 13:52 49.50025 20.91770 15703 ft 338 kts 153°
2026-05-01 13:52 49.47816 20.93022 15359 ft 338 kts 153°
2026-05-01 13:53 49.45500 20.93858 14667 ft 352 kts 173°
2026-05-01 13:53 49.40596 20.92653 13603 ft 355 kts 190°
2026-05-01 13:53 49.38208 20.91822 13195 ft 349 kts 190°
2026-05-01 13:54 49.35860 20.91036 12786 ft 343 kts 189°
2026-05-01 13:54 49.33532 20.90283 12283 ft 342 kts 189°
2026-05-01 13:54 49.31191 20.89539 11731 ft 343 kts 190°
2026-05-01 13:54 49.28907 20.88647 11428 ft 335 kts 201°
2026-05-01 13:55 49.26957 20.86823 11187 ft 324 kts 219°
2026-05-01 13:55 49.25236 20.84658 10872 ft 317 kts 221°
2026-05-01 13:55 49.23555 20.82497 10511 ft 314 kts 221°
2026-05-01 13:55 49.21889 20.80368 10131 ft 310 kts 221°
2026-05-01 13:56 49.20237 20.78278 9719 ft 306 kts 221°
2026-05-01 13:56 49.18629 20.76263 9314 ft 301 kts 221°
2026-05-01 13:56 49.17028 20.74263 8873 ft 293 kts 221°
2026-05-01 13:56 49.15473 20.72321 8555 ft 283 kts 221°
2026-05-01 13:57 49.13960 20.70438 8258 ft 271 kts 221°
2026-05-01 13:57 49.12542 20.68674 8014 ft 262 kts 221°
2026-05-01 13:57 49.11124 20.66909 7659 ft 257 kts 221°
2026-05-01 13:57 49.09749 20.65200 7290 ft 253 kts 222°
2026-05-01 13:58 49.08412 20.63545 6976 ft 247 kts 222°
2026-05-01 13:58 49.07091 20.61911 6702 ft 242 kts 224°
2026-05-01 13:58 49.05982 20.60088 6414 ft 228 kts 246°
2026-05-01 13:58 49.05598 20.57869 6128 ft 210 kts 276°
2026-05-01 13:59 49.05715 20.55741 5933 ft 193 kts 283°
2026-05-01 13:59 49.05864 20.53762 5709 ft 185 kts 282°
2026-05-01 13:59 49.05975 20.51883 5606 ft 166 kts 283°
2026-05-01 13:59 49.06064 20.50199 5619 ft 157 kts 282°
2026-05-01 14:00 49.06153 20.48535 5663 ft 157 kts 281°
2026-05-01 14:00 49.06238 20.46888 5604 ft 155 kts 281°
2026-05-01 14:00 49.06317 20.45356 5380 ft 140 kts 282°
2026-05-01 14:00 49.06393 20.43873 5118 ft 143 kts 281°
2026-05-01 14:01 49.06461 20.42358 4860 ft 144 kts 280°
2026-05-01 14:01 49.06539 20.40838 4634 ft 144 kts 281°
2026-05-01 14:01 49.06609 20.39323 4390 ft 143 kts 280°
2026-05-01 14:01 49.06685 20.37815 4159 ft 142 kts 280°
2026-05-01 14:02 49.06757 20.36308 3935 ft 143 kts 279°
2026-05-01 14:02 49.06827 20.34801 3741 ft 142 kts 281°
2026-05-01 14:02 49.06924 20.33309 3496 ft 142 kts 281°
2026-05-01 14:02 49.06990 20.31783 3232 ft 145 kts 277°
2026-05-01 14:03 49.07050 20.30263 2986 ft 143 kts 279°
2026-05-01 14:03 49.07139 20.28752 2758 ft 142 kts 276°
2026-05-01 14:03 49.07211 20.27277 2548 ft 137 kts 275°
2026-05-01 14:03 49.07281 20.25840 2343 ft 135 kts 275°
2026-05-01 14:04 49.07342 20.24508 2323 ft 111 kts 273°
2026-05-01 14:04 49.07382 20.23657 2339 ft 51 kts 274°
2026-05-01 14:04 49.07397 20.23335 2351 ft 25 kts 274°
2026-05-01 14:04 49.07410 20.23062 2359 ft 27 kts 274°
2026-05-01 14:05 49.07419 20.22871 2361 ft 9 kts 274°
2026-05-01 14:05 49.07403 20.22800 2361 ft 6 kts 253°
2026-05-01 14:05 49.07420 20.22824 2361 ft 8 kts 96°
2026-05-01 14:05 49.07413 20.22984 2361 ft 23 kts 93°
2026-05-01 14:06 49.07402 20.23234 2353 ft 24 kts 94°
2026-05-01 14:06 49.07390 20.23494 2346 ft 25 kts 94°
2026-05-01 14:06 49.07378 20.23764 2335 ft 26 kts 94°
2026-05-01 14:06 49.07364 20.24044 2328 ft 27 kts 94°
2026-05-01 14:07 49.07350 20.24335 2325 ft 28 kts 94°
2026-05-01 14:07 49.07337 20.24627 2323 ft 22 kts 94°
2026-05-01 14:07 49.07330 20.24783 2323 ft 10 kts 94°
2026-05-01 14:08 49.07197 20.24838 2318 ft 13 kts 184°
2026-05-01 14:08 49.07107 20.24830 2320 ft 12 kts 184°
2026-05-01 14:08 49.07041 20.24823 2305 ft 4 kts 184°
2026-05-01 14:08 49.07013 20.24826 2309 ft 5 kts 160°
2026-05-01 14:09 49.06984 20.24859 2309 ft 3 kts 138°
2026-05-01 14:09 49.06968 20.24863 2315 ft 0 kts 225°
2026-05-01 14:09 49.06965 20.24856 2314 ft 2 kts 239°
2026-05-01 14:09 49.06963 20.24848 2313 ft 1 kts 251°
2026-05-01 14:10 49.06961 20.24839 2311 ft 0 kts 253°